CAPE
2 1 0 0 0 0 0 1 0 0 0 0 0 0 0 0 0 0 0 0 0 0 0 0 0 0 0 0 0 0 0 0 0 0 0 0 0 0 0 0 0 0 0 0 0
1 2 0 0 0 0 1 1 1 0 0 0 0 0 0 0 0 0 0 0 0 0 0 0 0 0 0 0 0 0 0 0 0 0 0 0 0 0 0 0 0 0 0 0 0
3 3 1 0 0 0 2 1 0 0 0 0 0 0 0 0 0 0 0 0 0 0 0 0 0 0 0 0 0 0 0 0 0 0 0 0 0 0 0 0 0 0 0 0 0
4 0 2 1 0 0 0 1 0 0 0 0 0 0 0 0 0 0 0 0 0 0 0 0 0 0 0 0 0 0 0 0 0 0 0 0 0 0 0 0 0 0 0 0 0
1 0 3 0 0 0 0 1 0 0 0 0 0 0 0 0 0 0 0 0 0 0 0 0 0 0 0 0 0 0 0 0 0 0 0 0 0 0 0 0 0 0 0 0 0
0 0 2 0 0 0 0 0 0 0 0 0 0 0 0 0 0 0 0 0 0 0 0 0 0 0 0 0 0 0 0 0 0 0 0 0 0 0 0 0 0 0 0 0 0
0 0 3 0 0 0 0 0 0 0 0 0 0 0 0 0 0 0 0 0 0 0 0 0 0 0 0 0 0 0 0 0 0 0 0 0 0 0 0 0 0 0 0 0 0
0 1 2 0 0 0 0 0 0 0 0 0 0 0 0 0 0 0 0 0 0 0 0 0 0 0 0 0 0 0 0 0 0 0 0 0 0 0 0 0 0 0 0 0 0
0 0 2 0 0 0 0 0 0 0 0 0 0 0 0 0 0 0 0 0 0 0 0 0 0 0 0 0 0 0 0 0 0 0 0 0 0 0 0 0 0 0 0 0 0
0 0 1 0 0 0 0 0 0 0 0 0 0 0 0 0 0 0 0 0 0 0 0 0 0 0 0 0 0 0 0 0 0 0 0 0 0 0 0 0 0 0 0 0 0
0 0 0 2 0 0 0 0 0 0 0 0 0 0 0 0 0 0 0 0 0 0 0 0 0 0 0 0 0 0 0 0 0 0 0 0 0 0 0 0 0 0 0 0 0
0 0 0 3 0 0 0 0 0 0 0 0 0 0 0 0 0 0 0 0 0 0 0 0 0 0 0 0 0 0 0 0 0 0 0 0 0 0 0 0 0 0 0 0 0
0 0 0 3 0 0 0 0 0 0 0 0 0 0 0 0 0 0 0 0 0 0 0 0 0 0 0 0 0 0 0 0 0 0 0 0 0 0 0 0 0 0 0 0 0
0 0 0 1 0 0 0 0 0 0 0 0 0 0 0 0 0 0 0 0 0 0 0 0 0 0 0 0 0 0 0 0 0 0 0 0 0 0 0 0 0 0 0 0 0
3 2 0 0 0 0 0 0 0 0 0 0 0 0 0 0 0 0 0 0 0 0 0 0 0 0 0 0 0 0 0 0 0 0 0 0 0 0 0 0 0 0 0 0 0
3 5 1 0 0 0 0 0 0 0 0 0 0 0 0 0 0 0 0 0 0 0 0 0 0 0 0 0 0 0 0 0 0 0 0 0 0 0 0 0 0 0 0 0 0
3 4 1 0 0 0 0 0 0 0 0 0 0 0 0 0 0 0 0 0 0 0 0 0 0 0 0 0 0 0 0 0 0 0 0 0 0 0 0 0 0 0 0 0 0
3 4 2 0 0 0 0 0 0 0 0 0 0 0 0 0 0 0 0 0 0 0 0 0 0 0 0 0 0 0 0 0 0 0 0 0 0 0 0 0 0 0 0 0 0
3 0 1 0 0 0 0 0 0 0 0 0 0 0 0 0 0 0 0 0 0 0 0 0 0 0 0 0 0 0 0 0 0 0 0 0 0 0 0 0 0 0 0 0 0
0 1 2 0 0 0 0 0 0 0 0 0 0 0 0 0 0 0 0 0 0 0 0 0 0 0 0 0 0 0 0 0 0 0 0 0 0 0 0 0 0 0 0 0 0
0 0 1 1 0 0 0 0 0 0 0 0 0 0 0 0 0 0 0 0 0 0 0 0 0 0 0 0 0 0 0 0 0 0 0 0 0 0 0 0 0 0 0 0 0
0 0 2 0 1 0 0 0 0 0 0 0 0 0 0 0 0 0 0 0 0 0 0 0 0 0 0 0 0 0 0 0 0 0 0 0 0 0 0 0 0 0 0 0 0
0 1 1 0 0 2 0 0 0 0 0 0 0 0 0 0 0 0 0 0 0 0 0 0 0 0 0 0 0 0 0 0 0 0 0 0 0 0 0 0 0 0 0 0 0
0 0 0 0 1 0 0 0 0 0 0 0 0 0 0 0 0 0 0 0 0 0 0 0 0 0 0 0 0 0 0 0 0 0 0 0 0 0 0 0 0 0 0 0 0
1 0 0 0 1 1 0 0 0 0 0 0 0 0 0 0 0 0 0 0 0 0 0 0 0 0 0 0 0 0 0 0 0 0 0 0 0 0 0 0 0 0 0 0 0
0 0 0 0 0 1 0 0 0 0 0 0 0 0 0 0 0 0 0 0 0 0 0 0 0 0 0 0 0 0 0 0 0 0 0 0 0 0 0 0 0 0 0 0 0
0 0 0 0 0 1 0 0 0 0 0 0 0 0 0 0 0 0 0 0 0 0 0 0 0 0 0 0 0 0 0 0 0 0 0 0 0 0 0 0 0 0 0 0 0
CIN
0 0 0 0 0 0 0 0 0 0 0 0 0 0 0 0 0 0 0 0 0 0 0 0 0 0 0 0 0 0 0 0 0 0 0 0 0 0 0 0 0 0 0 0 0
0 0 0 0 0 0 0 0 0 0 0 0 0 0 0 0 0 0 0 0 0 0 0 0 0 0 0 0 0 0 0 0 0 0 0 0 0 0 0 0 0 0 0 0 0
0 0 0 0 0 0 0 0 0 0 0 0 0 0 0 0 0 0 0 0 0 0 0 0 0 0 0 0 0 0 0 0 0 0 0 0 0 0 0 0 0 0 0 0 0
0 0 0 0 0 0 0 0 0 0 0 0 0 0 0 0 0 0 0 0 0 0 0 0 0 0 0 0 0 0 0 0 0 0 0 0 0 0 0 0 0 0 0 0 0
0 -1 0 0 0 0 0 0 0 0 0 0 0 0 0 0 0 0 0 0 0 0 0 0 0 0 0 0 0 0 0 0 0 0 0 0 0 0 0 0 0 0 0 0 0
0 0 0 0 0 0 0 0 0 0 0 0 0 0 0 0 0 0 0 0 0 0 0 0 0 0 0 0 0 0 0 0 0 0 0 0 0 0 0 0 0 0 0 0 0
0 0 0 0 0 0 0 0 0 0 0 0 0 0 0 0 0 0 0 0 0 0 0 0 0 0 0 0 0 0 0 0 0 0 0 0 0 0 0 0 0 0 0 0 0
0 0 0 0 0 0 0 0 0 0 0 0 0 0 0 0 0 0 0 0 0 0 0 0 0 0 0 0 0 0 0 0 0 0 0 0 0 0 0 0 0 0 0 0 0
0 0 0 0 0 0 0 0 0 0 0 0 0 0 0 0 0 0 0 0 0 0 0 0 0 0 0 0 0 0 0 0 0 0 0 0 0 0 0 0 0 0 0 0 0
0 0 0 0 0 0 0 0 0 0 0 0 0 0 0 0 0 0 0 0 0 0 0 0 0 0 0 0 0 0 0 0 0 0 0 0 0 0 0 0 0 0 0 0 0
0 0 0 0 0 0 0 0 0 0 0 0 0 0 0 0 0 0 0 0 0 0 0 0 0 0 0 0 0 0 0 0 0 0 0 0 0 0 0 0 0 0 0 0 0
0 0 -2 0 0 0 0 0 0 0 0 0 0 0 0 0 0 0 0 0 0 0 0 0 0 0 0 0 0 0 0 0 0 0 0 0 0 0 0 0 0 0 0 0 0
0 0 0 0 0 0 0 0 0 0 0 0 0 0 0 0 0 0 0 0 0 0 0 0 0 0 0 0 0 0 0 0 0 0 0 0 0 0 0 0 0 0 0 0 0
0 0 0 0 0 0 0 0 0 0 0 0 0 0 0 0 0 0 0 0 0 0 0 0 0 0 0 0 0 0 0 0 0 0 0 0 0 0 0 0 0 0 0 0 0
0 0 0 0 0 0 0 0 0 0 0 0 0 0 0 0 0 0 0 0 0 0 0 0 0 0 0 0 0 0 0 0 0 0 0 0 0 0 0 0 0 0 0 0 0
0 0 0 0 0 0 0 0 0 0 0 0 0 0 0 0 0 0 0 0 0 0 0 0 0 0 0 0 0 0 0 0 0 0 0 0 0 0 0 0 0 0 0 0 0
0 0 0 0 0 0 0 0 0 0 0 0 0 0 0 0 0 0 0 0 0 0 0 0 0 0 0 0 0 0 0 0 0 0 0 0 0 0 0 0 0 0 0 0 0
0 0 0 0 0 0 0 0 0 0 0 0 0 0 0 0 0 0 0 0 0 0 0 0 0 0 0 0 0 0 0 0 0 0 0 0 0 0 0 0 0 0 0 0 0
0 0 0 0 0 0 0 0 0 0 0 0 0 0 0 0 0 0 0 0 0 0 0 0 0 0 0 0 0 0 0 0 0 0 0 0 0 0 0 0 0 0 0 0 0
0 0 0 0 0 0 0 0 0 0 0 0 0 0 0 0 0 0 0 0 0 0 0 0 0 0 0 0 0 0 0 0 0 0 0 0 0 0 0 0 0 0 0 0 0
0 0 0 0 0 0 0 0 0 0 0 0 0 0 0 0 0 0 0 0 0 0 0 0 0 0 0 0 0 0 0 0 0 0 0 0 0 0 0 0 0 0 0 0 0
0 0 0 -1 0 0 0 0 0 0 0 0 0 0 0 0 0 0 0 0 0 0 0 0 0 0 0 0 0 0 0 0 0 0 0 0 0 0 0 0 0 0 0 0 0
0 0 0 0 0 0 0 0 0 0 0 0 0 0 0 0 0 0 0 0 0 0 0 0 0 0 0 0 0 0 0 0 0 0 0 0 0 0 0 0 0 0 0 0 0
0 0 0 0 0 0 0 0 0 0 0 0 0 0 0 0 0 0 0 0 0 0 0 0 0 0 0 0 0 0 0 0 0 0 0 0 0 0 0 0 0 0 0 0 0
0 0 0 0 0 0 0 0 0 0 0 0 0 0 0 0 0 0 0 0 0 0 0 0 0 0 0 0 0 0 0 0 0 0 0 0 0 0 0 0 0 0 0 0 0
0 0 0 0 0 0 0 0 0 0 0 0 0 0 0 0 0 0 0 0 0 0 0 0 0 0 0 0 0 0 0 0 0 0 0 0 0 0 0 0 0 0 0 0 0
0 0 0 0 0 0 0 0 0 0 0 0 0 0 0 0 0 0 0 0 0 0 0 0 0 0 0 0 0 0 0 0 0 0 0 0 0 0 0 0 0 0 0 0 0
Wind_Speed
15 16 17 18 18 18 18 18 18 18 18 17 17 17 17 17 13 12 12 15 17 20 19 12 10 10 11 12 14 12 15 13 10 8 9 7 7 8 10 10 10 11 12 12 10
15 16 17 17 18 18 18 18 18 18 18 17 17 17 17 17 12 11 13 18 18 17 12 9 8 10 11 12 15 13 14 12 9 6 8 7 6 6 8 8 8 11 11 10 9
14 15 16 17 18 18 18 19 18 18 18 18 18 18 18 15 12 13 16 19 17 13 11 10 10 10 10 13 16 15 14 12 13 8 7 6 6 7 6 6 4 4 5 6 7
16 15 14 17 18 18 18 19 19 19 19 18 18 19 18 13 14 13 18 18 15 10 10 9 11 10 10 10 14 14 16 15 14 10 7 4 6 7 4 10 9 3 5 5 6
16 16 15 15 16 18 18 19 19 18 18 18 18 19 14 15 14 15 19 16 12 10 10 10 10 10 9 11 13 14 13 16 13 10 9 8 7 10 6 11 8 5 4 4 5
17 16 16 16 16 17 18 19 19 18 17 18 18 18 15 15 15 18 18 13 12 10 9 11 10 9 11 13 13 14 13 13 14 11 11 9 10 12 9 7 5 3 2 2 3
17 18 15 17 18 18 19 20 19 19 18 18 18 15 15 17 16 18 15 13 13 9 8 10 8 11 10 12 10 13 14 15 14 13 13 12 12 8 9 4 2 1 3 2 1
15 17 16 16 19 18 19 19 19 18 18 16 17 16 16 16 16 14 14 11 11 10 8 8 10 11 13 10 15 15 16 16 15 13 14 14 13 15 6 2 3 3 3 3 2
15 16 16 17 18 19 19 19 19 18 17 17 15 16 17 17 15 14 12 10 9 10 9 9 12 12 10 11 15 16 10 13 22 14 15 13 16 18 7 3 5 5 5 5 4
15 15 15 16 17 19 20 18 17 16 15 15 16 17 17 16 15 14 13 10 10 8 10 13 13 14 13 9 8 9 10 14 14 19 16 17 16 12 12 4 7 8 9 7 7
17 15 14 15 17 17 17 14 17 20 18 19 17 17 15 14 15 15 14 11 9 10 12 13 14 9 3 7 15 13 11 13 17 17 11 9 24 17 10 10 11 12 12 12 11
19 16 15 15 16 17 16 18 19 18 22 21 20 18 16 14 13 14 14 10 8 9 9 13 10 13 9 9 14 14 15 16 18 17 12 17 28 21 14 16 16 17 16 17 12
20 18 16 15 15 19 20 18 17 18 25 23 22 20 18 15 16 10 11 12 13 12 10 13 15 9 11 12 13 16 15 17 19 18 18 33 33 9 6 15 12 16 16 16 16
20 19 17 14 21 20 23 19 16 16 29 26 24 23 19 16 20 15 13 14 16 12 11 16 14 11 13 12 14 15 17 17 18 18 21 24 35 16 10 7 7 10 14 14 14
21 19 17 17 21 22 21 13 14 17 35 22 21 20 19 19 14 18 16 17 14 13 13 15 13 13 15 17 12 19 17 17 18 19 24 24 25 20 18 9 6 7 10 10 10
22 20 18 21 22 21 13 10 14 24 34 21 18 18 19 23 20 16 17 16 14 16 19 18 16 17 17 16 16 9 17 20 21 21 23 19 16 23 13 17 14 13 6 3 5
23 21 23 19 22 14 12 16 26 36 24 26 21 18 19 20 21 20 18 19 20 21 21 22 21 20 14 18 14 17 17 25 24 20 19 19 16 11 15 12 11 12 14 7 1
23 19 21 23 17 16 16 24 38 34 32 21 20 20 21 18 21 20 22 24 23 21 21 23 27 20 18 20 21 17 20 20 22 18 24 20 16 17 18 17 13 11 10 6 1
19 21 22 20 18 21 22 33 40 33 26 29 23 25 26 23 22 22 25 30 25 20 22 23 28 21 21 20 17 19 22 19 24 24 23 24 26 32 18 12 10 10 11 8 4
19 20 23 16 16 18 28 38 38 32 26 27 37 31 31 26 25 22 23 26 28 22 22 22 27 23 21 19 19 19 13 21 22 23 24 20 26 18 21 19 17 13 5 7 5
22 26 21 16 13 23 38 40 37 28 26 31 37 35 35 30 28 29 29 28 23 22 24 22 25 25 20 22 20 20 22 22 22 21 25 27 21 15 21 15 17 15 13 10 6
26 34 19 19 28 33 40 35 32 35 29 30 31 34 36 32 34 33 33 29 22 18 23 25 25 30 27 23 23 27 24 21 26 27 26 28 26 24 24 20 19 17 17 14 9
26 24 23 25 40 43 39 37 34 33 35 33 33 32 31 36 41 35 33 28 23 22 21 23 29 32 31 29 27 28 29 27 28 28 27 29 27 20 21 20 20 22 21 18 13
25 30 28 35 34 42 41 41 39 34 34 34 33 29 30 36 35 37 36 30 27 26 25 22 29 33 37 33 25 29 28 26 27 32 32 30 34 28 26 25 25 25 23 22 17
27 31 30 43 46 37 36 37 41 39 34 32 37 37 36 40 37 40 37 32 29 29 28 28 37 35 37 34 32 34 34 27 29 30 34 34 32 21 17 26 29 29 28 25 20
30 32 31 37 37 41 37 49 46 38 34 40 42 40 37 38 37 38 34 33 34 30 27 30 38 34 39 36 39 46 40 33 32 34 37 41 43 26 39 32 33 33 29 25 22
28 26 31 36 37 41 51 50 45 36 41 40 41 40 40 42 35 33 30 32 35 34 32 34 37 39 47 37 41 53 42 39 39 36 37 40 42 44 43 37 35 36 31 26 25
Wind_Direction
307 305 301 299 296 299 301 297 290 288 291 293 295 297 299 299 308 311 314 311 304 290 299 328 341 336 343 346 340 358 343 353 13 44 24 77 51 29 28 32 25 14 16 20 82
303 305 304 301 296 296 297 296 299 296 290 294 295 297 299 300 317 319 318 302 300 307 336 349 347 335 336 334 333 336 340 352 10 43 28 87 59 64 26 24 15 7 15 38 56
302 302 302 303 301 296 294 292 295 299 297 292 292 299 297 300 313 309 308 300 303 324 346 343 345 335 337 333 326 334 334 348 340 1 45 68 36 15 24 10 29 33 64 54 32
290 298 305 303 301 299 298 291 291 290 286 289 289 293 295 304 294 310 301 300 310 341 344 349 337 336 342 339 331 335 331 330 331 345 15 34 19 359 5 353 4 51 82 42 29
286 289 297 306 306 301 298 295 294 296 292 291 293 295 302 292 302 311 300 306 323 333 332 337 335 340 349 344 335 332 335 329 337 347 354 2 350 343 338 348 12 75 58 37 31
281 285 289 294 300 303 298 295 294 294 300 295 294 296 296 289 308 307 302 315 322 331 333 329 337 353 353 340 338 338 340 340 336 343 340 342 341 337 346 1 26 70 49 49 57
277 278 287 289 292 295 294 292 291 288 293 294 296 300 292 287 301 298 309 318 315 329 338 335 4 343 358 348 0 343 337 335 332 332 337 340 326 320 341 6 2 339 341 359 37
270 278 280 286 287 290 291 291 291 292 292 303 299 297 293 296 300 311 311 327 329 337 354 360 7 358 344 13 341 335 333 325 327 328 333 332 328 344 332 312 271 279 295 290 266
262 272 276 279 285 284 285 288 288 293 295 297 299 293 291 294 289 305 312 320 335 339 343 346 337 343 347 339 336 330 337 327 317 319 324 321 330 341 343 279 256 254 251 248 271
256 264 271 275 280 281 279 283 291 295 299 302 296 292 293 290 290 294 301 311 317 329 325 320 326 320 320 330 326 337 335 329 327 320 312 315 237 321 334 285 254 247 235 246 241
250 256 263 270 274 277 277 287 286 285 284 281 290 285 300 291 292 288 292 301 312 317 304 311 308 306 292 321 323 330 334 331 330 329 325 251 241 241 293 280 256 237 233 231 226
244 249 256 265 270 272 272 276 282 291 283 279 282 285 289 291 289 285 286 298 298 296 311 311 302 311 326 324 324 330 332 329 329 331 330 324 247 242 241 239 237 229 229 223 227
238 242 248 259 266 269 266 272 288 292 282 282 275 277 280 280 284 271 279 292 292 289 290 299 317 325 318 316 318 321 326 328 328 333 330 306 258 271 282 228 240 232 229 226 224
231 233 238 249 266 263 264 266 284 294 281 280 271 273 272 276 277 281 278 285 289 281 291 301 309 314 315 312 316 316 323 325 325 330 325 327 301 327 322 268 257 231 223 225 225
228 222 224 236 264 255 266 255 276 288 275 286 272 280 269 264 278 271 279 280 276 282 289 294 305 302 305 312 315 318 324 326 328 327 323 322 322 332 339 332 259 253 229 226 225
224 219 218 250 262 260 249 246 269 266 270 282 283 270 260 266 271 274 271 283 286 285 291 293 306 304 309 320 318 338 326 325 325 325 320 325 327 324 347 344 356 355 4 213 212
224 218 229 243 250 242 226 245 252 255 274 273 279 273 267 263 265 266 257 256 264 271 272 286 288 297 304 306 317 313 314 312 317 319 317 331 328 278 322 332 338 340 341 349 184
225 216 242 250 241 227 231 243 251 265 258 276 280 270 270 268 268 265 263 256 262 272 280 271 281 279 289 294 296 295 302 306 314 321 319 329 331 336 334 335 339 340 346 350 342
209 244 242 243 232 242 227 242 255 257 261 256 271 272 268 269 274 266 265 265 260 251 268 275 279 288 290 291 292 294 291 304 305 314 314 309 313 311 315 317 313 325 340 354 346
228 246 247 222 227 222 241 249 257 261 259 261 258 264 265 263 263 264 264 275 265 251 271 276 283 287 288 287 289 289 301 299 299 308 310 319 309 319 327 338 340 341 332 339 350
241 248 248 217 207 235 249 253 255 263 261 259 259 261 263 265 261 264 274 276 273 264 260 268 276 284 283 274 272 280 282 293 298 298 304 310 314 331 326 326 329 334 338 341 340
247 247 228 198 242 253 253 256 260 253 257 264 265 262 261 261 262 264 265 272 277 263 259 263 276 272 274 285 281 278 278 278 287 294 293 300 299 317 313 319 327 329 330 335 333
243 255 237 223 250 248 257 260 261 257 251 259 262 265 266 262 264 263 266 273 270 263 265 256 267 271 277 278 280 278 275 277 282 290 285 290 302 330 324 313 319 322 324 328 328
246 247 251 243 255 254 254 257 256 260 261 257 263 263 264 264 266 267 266 270 268 263 265 264 268 264 265 278 280 279 276 265 268 279 285 276 292 301 306 306 309 313 317 319 320
250 254 251 245 246 255 253 258 255 258 255 255 261 256 257 263 265 266 266 268 270 267 265 265 270 269 270 275 276 280 281 270 259 258 276 289 283 282 269 297 300 305 307 310 311
256 254 255 261 250 247 254 254 257 254 257 256 258 260 260 259 260 265 265 267 269 268 264 265 268 274 271 274 275 276 276 274 269 272 276 284 285 293 299 302 301 301 302 302 301
258 262 260 258 252 248 250 255 261 258 260 261 258 261 260 258 266 276 276 269 266 265 262 265 264 271 270 278 280 275 270 270 274 275 278 278 286 297 295 294 295 298 298 297 297